Weather Roundup
Issued by NWS Springfield, MO

Home | Current Version | Previous Version | Text Only | Print | Product List | Glossary On
Versions: 1 2 3 4 5 6 7 8 9 10 11 12 13 14 15 16 17 18 19 20 21 22 23 24 25 26 27 28 29 30 31 32 33 34 35 36 37 38 39 40 41 42 43 44 45 46 47 48 49 50
000
NZUS99 KSGF 201607
HRRSGF

HOURLY WEATHER
NATIONAL WEATHER SERVICE SPRINGFIELD MO
1000 AM CST MON FEB 20 2017

......SGF CWA......

CITY           SKY/WX    TMP DP  RH WIND       PRES   REMARKS
SPRINGFIELD    CLOUDY    62  57  83 S18G24    29.94R
JOPLIN         LGT RAIN  62  61  96 S14       29.90R
WEST PLAINS    MOSUNNY   65  53  65 S15G22    30.05R
ROLLA          CLOUDY    68  52  56 S22       29.98R
OSAGE BEACH    PTSUNNY   67  52  58 S15G21    29.95R
BRANSON        CLOUDY    66  59  77 S12       29.98R

......SURROUNDING SGF CWA......

CITY           SKY/WX    TMP DP  RH WIND       PRES   REMARKS
CHANUTE        CLOUDY    63  58  83 SE13      29.81R
PARSONS        CLOUDY    62  59  90 SE9       29.83R
COFFEYVILLE    CLOUDY    62  59  90 S14       29.84R
EMPORIA        CLOUDY    59  58  96 SW9       29.84R
GROVE OK       PTSUNNY   63  61  94 SE8       29.89F
ROGERS AR      CLOUDY    61  59  93 SE10      29.94F
SILOAM SPRINGS CLOUDY    61  57  88 SE9       29.92R
HARRISON AR    CLOUDY    64  59  83 S15       29.99R
NEAR YELLVILLE CLOUDY    66  54  63 S7        29.98S

......KANSAS AND MISSOURI......

CITY           SKY/WX    TMP DP  RH WIND       PRES   REMARKS
KANSAS CTY INT CLOUDY    60  59  96 S13       29.81F
DOWNTOWN KC    LGT RAIN  62  58  86 SE9G21    29.81F
COLUMBIA       PTSUNNY   71  52  50 S25G35    29.93S
SEDALIA        CLOUDY    68  54  60 S17       29.89F
ST JOSEPH      CLOUDY    60  58  92 S13       29.80F
ST LOUIS       PTSUNNY   66  51  58 SE14      30.03F
SPIRIT OF STL  MOSUNNY   66  53  63 VRB5      30.00F
KIRKSVILLE     CLOUDY    63  54  72 S12       29.90F
WICHITA        CLOUDY    57  54  89 S10       29.81R
TOPEKA         CLOUDY    62  57  83 S8        29.80S
OLATHE         CLOUDY    59  58  96 S14       29.80F

......TENNESSEE......

CITY           SKY/WX    TMP DP  RH WIND       PRES   REMARKS
MEMPHIS        PTSUNNY   71  54  54 S13       30.10R
NASHVILLE      CLOUDY    63  48  58 CALM      30.17F

......ARKANSAS.......

CITY           SKY/WX    TMP DP  RH WIND       PRES   REMARKS
FAYETTEVILLE   CLOUDY    62  60  93 CALM      29.94F
FT SMITH       CLOUDY    62  57  83 SE8       29.94S
LITTLE ROCK    PTSUNNY   68  61  78 SE12      30.04S

......OKLAHOMA.......

CITY           SKY/WX    TMP DP  RH WIND       PRES   REMARKS
TULSA          CLOUDY    61  58  90 SW8       29.88R
PONCA CITY     PTSUNNY   58  53  84 S8        29.86R
MCALESTER      CLOUDY    59  54  83 SE7       29.92R
OKLAHOMA CITY  CLOUDY    56  54  93 S15       29.90R

......IOWA............

CITY           SKY/WX    TMP DP  RH WIND       PRES   REMARKS
DES MOINES     CLOUDY    61  55  81 S13       29.82F
QUAD CITIES    CLOUDY    55  50  83 SE10      29.99F HAZE

......ILLINOIS........

CITY           SKY/WX    TMP DP  RH WIND       PRES   REMARKS
QUINCY         CLOUDY    61  52  72 SE12      29.95F
CHICAGO        CLOUDY    57  47  69 S13       30.11F



USA.gov is the U.S. government's official web portal to all federal, state and local government web resources and services.